Address 0x1fb951a46cc6777264dd39e6c7b57ee837e06e67 4

 

Overview

Balance:
4.157432770858181605 MATIC

MATIC Value:
$3.74 (@ $0.90/MATIC)
 
Txn Hash Method
Block
From
To
Value [Txn Fee]
0x66fccfcf723e0c0af58d2eaad03fd0d23f2a507c4acd74065ecedf424972f65aReset319230532022-08-15 14:55:032 days 4 hrs ago0x1fb951a46cc6777264dd39e6c7b57ee837e06e67OUT 0xcddc4abde2da0733c318d87bbd8a91d3f779b1110 MATIC0.000829727779 35.02586768
0x0ce75c796f1457366ab174cb59ecf672fc2ee00f1d5a3acf50de3fbea91a07d8Set Time319230192022-08-15 14:53:552 days 4 hrs ago0x1fb951a46cc6777264dd39e6c7b57ee837e06e67OUT 0xcddc4abde2da0733c318d87bbd8a91d3f779b1110 MATIC0.00089949864 31.359991663
0x0502fc79f94bcf4f92f7a671946460211eea1226301da07452021567c4727894Set Time319229782022-08-15 14:52:272 days 4 hrs ago0x1fb951a46cc6777264dd39e6c7b57ee837e06e67OUT 0xcddc4abde2da0733c318d87bbd8a91d3f779b1110 MATIC0.000867736954 30.252656769
0x7b0a1c4149537fce11cd01192e1d2f1d72b402afa57ff2d4cee2faad6dadfd7bSet Time319229332022-08-15 14:50:532 days 4 hrs ago0x1fb951a46cc6777264dd39e6c7b57ee837e06e67OUT 0xcddc4abde2da0733c318d87bbd8a91d3f779b1110 MATIC0.001390887035 30.379988971
0xd2c82b7884da83fb603c313c69c2d43cb1a39b7a795f6d4574805e4c8b8b0882Reset318492212022-08-13 16:24:084 days 2 hrs ago0x1fb951a46cc6777264dd39e6c7b57ee837e06e67OUT 0xcddc4abde2da0733c318d87bbd8a91d3f779b1110 MATIC0.000744244428 31.417300365
0x50a01def704924027c51e6b74cb16b5196ef5257e936ee79651773c85962515cSet Time318491882022-08-13 16:22:584 days 2 hrs ago0x1fb951a46cc6777264dd39e6c7b57ee837e06e67OUT 0xcddc4abde2da0733c318d87bbd8a91d3f779b1110 MATIC0.000917298727 31.993956538
0xee3ed754d84570a81acd54eb0103c5ead1332facbba2acadc789c6818476d75cSet Time318491342022-08-13 16:21:064 days 2 hrs ago0x1fb951a46cc6777264dd39e6c7b57ee837e06e67OUT 0xcddc4abde2da0733c318d87bbd8a91d3f779b1110 MATIC0.001042493006 36.34532672
0x325738e7b99f76edd32b7521d76f814d324181c673d9218d55917a6cee99feb5Set Time318491062022-08-13 16:20:104 days 2 hrs ago0x1fb951a46cc6777264dd39e6c7b57ee837e06e67OUT 0xcddc4abde2da0733c318d87bbd8a91d3f779b1110 MATIC0.001128209678 39.333740481
0x15eb0f08417511da58a7b4684aa7118b7f708c7b7253d8e4d268efef80a4b374Set Time318490682022-08-13 16:18:504 days 2 hrs ago0x1fb951a46cc6777264dd39e6c7b57ee837e06e67OUT 0xcddc4abde2da0733c318d87bbd8a91d3f779b1110 MATIC0.00209552489 45.770807724
0xad4697d1d1543faeeaf52a6aa99caf21b7f04dbcdcc26b4067a7f0a4e18ff7e2Add And Activate...318490212022-08-13 16:17:124 days 2 hrs ago0x1fb951a46cc6777264dd39e6c7b57ee837e06e67OUT 0x440bb22fa4866d1591baca87e39fba8aaeba5d420 MATIC0.023151703588 55.841868402
0xaadbc6f366eae57eeb02c214470e163306cb6eea99035092f3a26b3c363315adReset318489052022-08-13 16:11:284 days 3 hrs ago0x1fb951a46cc6777264dd39e6c7b57ee837e06e67OUT 0xcddc4abde2da0733c318d87bbd8a91d3f779b1110 MATIC0.0017494997 68.103067487
0xb70338d34d52e0c431b98857c2fc10a4bdde24df5be6c6571e5c3ac1217a120dReset318488912022-08-13 16:10:364 days 3 hrs ago0x1fb951a46cc6777264dd39e6c7b57ee837e06e67OUT 0xcddc4abde2da0733c318d87bbd8a91d3f779b1110 MATIC0.001131066711 44.029223086
0x40f661df17ade8be5d18be804c4fd9ba42d1cd63cc7e80ed9cc18af986386762Reset318487312022-08-13 16:03:564 days 3 hrs ago0x1fb951a46cc6777264dd39e6c7b57ee837e06e67OUT 0xcddc4abde2da0733c318d87bbd8a91d3f779b1110 MATIC0.000766539039 32.358438062
0x4e65dbb8dfc1be3eef6e212d925535d8438db2366941627ccd00ef3b016183a2Set Time318487182022-08-13 16:03:044 days 3 hrs ago0x1fb951a46cc6777264dd39e6c7b57ee837e06e67OUT 0xcddc4abde2da0733c318d87bbd8a91d3f779b1110 MATIC0.001012005387 35.29717789
0x256e1ad002da3b9efea39ac950d053dcc730e0eeb5831d9580adec3c6765d26fSet Time318486792022-08-13 16:01:124 days 3 hrs ago0x1fb951a46cc6777264dd39e6c7b57ee837e06e67OUT 0xcddc4abde2da0733c318d87bbd8a91d3f779b1110 MATIC0.000860637547 30.005144077
0xa0d2110327c1f331ceb7cdda9cc8f626f91268900488e2245eb5a4c7f9e02933Set Time318486322022-08-13 15:59:344 days 3 hrs ago0x1fb951a46cc6777264dd39e6c7b57ee837e06e67OUT 0xcddc4abde2da0733c318d87bbd8a91d3f779b1110 MATIC0.001374024211 30.011668344
0x230eebbeaa861ba37747546ac016d311334c8adc705570730bece2fd9f22f5b5Reset318365102022-08-13 8:00:514 days 11 hrs ago0x1fb951a46cc6777264dd39e6c7b57ee837e06e67OUT 0xcddc4abde2da0733c318d87bbd8a91d3f779b1110 MATIC0.000710738448 30.002889459
0x5b5a323e549693b2ab368536d10506ce0962f788025fc2845f642f9ae02cb03aSet Time318364732022-08-13 7:59:334 days 11 hrs ago0x1fb951a46cc6777264dd39e6c7b57ee837e06e67OUT 0xcddc4abde2da0733c318d87bbd8a91d3f779b1110 MATIC0.00143575488 31.360000003
0x5f5aae4221d6273fe6bc8c75d96552171eb6c797a167ff851ff3fd19ab335d50Reset318362022022-08-13 7:50:154 days 11 hrs ago0x1fb951a46cc6777264dd39e6c7b57ee837e06e67OUT 0xcddc4abde2da0733c318d87bbd8a91d3f779b1110 MATIC0.000724493988 30.583561507
0x4128d94ac0d0b7463ee947680fc6481c96a9a774d8452df60dd7636cdebf8278Set Time318360692022-08-13 7:44:494 days 11 hrs ago0x1fb951a46cc6777264dd39e6c7b57ee837e06e67OUT 0xcddc4abde2da0733c318d87bbd8a91d3f779b1110 MATIC0.001635683958 35.726884621
0xc65f0b368fab1018f130a494572b36013a43ebadb9a2b527862492e25ba5a90bReset318360422022-08-13 7:43:014 days 11 hrs ago0x1fb951a46cc6777264dd39e6c7b57ee837e06e67OUT 0xcddc4abde2da0733c318d87bbd8a91d3f779b1110 MATIC0.000931693134 39.330201139
0xcab6e86312270d6ffae1fd12dc2e9455018a0677e32a3f4df6dffe8527d72a6aSet Time318360172022-08-13 7:41:454 days 11 hrs ago0x1fb951a46cc6777264dd39e6c7b57ee837e06e67OUT 0xcddc4abde2da0733c318d87bbd8a91d3f779b1110 MATIC0.00115248833 40.180187941
0x138011f45a191481bd28d64c060cad73853b31c0dd9d263c39187d6632efccfdSet Time318359672022-08-13 7:40:014 days 11 hrs ago0x1fb951a46cc6777264dd39e6c7b57ee837e06e67OUT 0xcddc4abde2da0733c318d87bbd8a91d3f779b1110 MATIC0.001709445657 37.338000073
0x6eda17323e50159d683b4bf54b9b7b8a2b12dc5446520db8cc7e2ac7474737a2Approve318136962022-08-12 17:43:385 days 1 hr ago0x1fb951a46cc6777264dd39e6c7b57ee837e06e67OUT 0x440bb22fa4866d1591baca87e39fba8aaeba5d420 MATIC0.001402724584 30.017003377
0xd0541d92648ddf5700c8cbcc98bff83170315b6dc6f46512f36040065860c659Multicall318136572022-08-12 17:42:165 days 1 hr ago0x1fb951a46cc6777264dd39e6c7b57ee837e06e67OUTUniswap V3: Router 25 MATIC0.006495051492 32.438925868
[ Download CSV Export 
Latest 7 internal transactions
Parent Txn Hash Block From To Value
0x68cee63648bd7be9a181ac7bc344391b7799791e068ba4200b9824162d4a5ec6318036242022-08-12 10:49:375 days 8 hrs ago Uniswap V3: Router 20x1fb951a46cc6777264dd39e6c7b57ee837e06e670.197917945658033968 MATIC
0xdc04e33d640ae8cd33886f6602b172d7fae3a7598fc24311892a5eb52aecb721317273992022-08-10 9:38:467 days 9 hrs ago Uniswap V3: Router 20x1fb951a46cc6777264dd39e6c7b57ee837e06e67290.496703005608052039 MATIC
0xf6da763a243cd5cf2a35da7e6150d19ce737798dcca707838d7798b0818def30317202882022-08-10 4:45:277 days 14 hrs ago Uniswap V3: Router 20x1fb951a46cc6777264dd39e6c7b57ee837e06e67392.198161653369395321 MATIC
0x4d1e92512736009a01724768124ae513f192bdf17c7802d9a0a7a988482b4a4d316261702022-08-07 14:27:5210 days 4 hrs ago Uniswap V3: Router 20x1fb951a46cc6777264dd39e6c7b57ee837e06e67259.623635073940901538 MATIC
0x7317ebf7c75c86394cf13f60e5a0862126e67924fc268da02932f4be6db396fc315637482022-08-05 22:09:1811 days 21 hrs ago Uniswap V3: Router 20x1fb951a46cc6777264dd39e6c7b57ee837e06e67380.323352448370529705 MATIC
0xbbbf4e6d21df1bbfeedea6a03dc2f4077b9db403faf12bfc97883e7d137766b8315384762022-08-05 6:21:0312 days 12 hrs ago Uniswap V3: Router 20x1fb951a46cc6777264dd39e6c7b57ee837e06e67506.524488924462119867 MATIC
0x965f0372a9d204ed60afec2c46ef891399675d28b953d5acd417f6ccca0500a2306731182022-07-13 8:18:4535 days 10 hrs ago Uniswap V3: Router 20x1fb951a46cc6777264dd39e6c7b57ee837e06e670.48094935495591379 MATIC
[ Download CSV Export 
Loading

Contract Name:
0 MATIC

Compiler Version
0

Optimization Enabled:
0 MATIC

Other Settings:
-NA-
Block Transaction Gas Used Reward
Age Block Fee Address BC Fee Address Voting Power Jailed Incoming
Block Uncle Number Difficulty Gas Used Reward
Loading
Loading
Make sure to use the "Vote Down" button for any spammy posts, and the "Vote Up" for interesting conversations.